Location: Newark
(45.6578°N, 6.1797°E)
Time: 05:36:14
(UTC+00:00)

Envisat - Visible Passes

Search period start: 22 September 2019 00:00
Search period end: 02 October 2019 00:00
Orbit: 764 x 766 km, 98.1° (Epoch: 21 September)

Date Brightness Start Highest point End Pass type
(mag) Time Alt. Az. Time Alt. Az. Time Alt. Az.
22 Sep 4.2 18:10:39 10° S 18:15:32 47° W 18:20:28 10° NNW visible
23 Sep 6.1 19:15:59 10° WSW 19:18:23 13° W 19:20:46 10° WNW visible
24 Sep 5.2 18:36:52 10° SSW 18:41:12 28° W 18:45:34 10° NW visible
25 Sep 3.7 17:59:15 10° S 18:04:14 59° W 18:09:17 10° NNW visible
26 Sep 5.9 19:03:45 10° SW 19:06:59 17° W 19:10:12 10° NW visible
27 Sep 4.8 18:25:15 10° SSW 18:29:52 35° W 18:34:31 10° NNW visible
28 Sep 3.3 17:47:54 10° S 17:52:58 74° WSW 17:58:04 10° NNW visible
29 Sep 5.7 18:51:49 10° SW 18:55:36 21° W 18:59:24 10° NW visible
30 Sep 4.3 18:13:44 10° S 18:18:33 43° W 18:23:24 10° NNW visible
01 Oct 6.2 19:19:30 10° WSW 19:21:25 12° W 19:23:22 10° WNW visible
